Location: Unspecified
(43.4354°N, 0.0000°E)
Time: 14:43:06
(UTC+00:00)

Courier 1B - Pass Details

Date: 27 June 2019
Orbit: 963 x 1209 km, 28.3° (Epoch: 20 July)

Event Time Altitude Azimuth Distance (km) Brightness Sun altitude
Rises 15:53:37 0° 217° (SW) 3,672 11.0 39.0°
Reaches altitude 10° 15:57:27 10° 195° (SSW) 2,761 10.2 38.3°
Maximum altitude 16:01:07 15° 161° (SSE) 2,429 9.6 37.6°
Drops below altitude 10° 16:04:53 10° 128° (SE) 2,853 9.7 36.9°
Sets 16:08:57 0° 107° (ESE) 3,865 10.2 36.2°
